CCM210 LFKJ-EDDB

Flight info

Callsign CCM210
Flight time 1h 41m
Altitude 36000
Route TORTU DCT GOLAS DCT NESTI DCT SOTOV T101 ANDEC/N0444F370 T101 BETOS/N0448F380 M726 MAH/N0443F370 DCT INPUD/N0449F380 Y102 UPALA M726 ANELA/N0443F370
Aircraft A319/M-SDE3FGHIRWY/LB1

Departure

Time 2026-05-07 19:07
Airport Ajaccio Napoléon Bonaparte airport (LFKJ)

Arrival

Time 2026-05-07 20:48
Airport Berlin Brandenburg Airport (EDDB)
Time Latitude Longitude Altitude Speed Heading
2026-05-07 18:24 41.91858 8.79495 9 ft 0 kts 345°
2026-05-07 18:46 41.91859 8.79494 9 ft 0 kts 345°
2026-05-07 18:46 41.91861 8.79494 9 ft 0 kts 358°
2026-05-07 18:46 41.91862 8.79495 9 ft 0 kts 18°
2026-05-07 18:47 41.91863 8.79496 9 ft 0 kts 32°
2026-05-07 18:47 41.91868 8.79500 9 ft 0 kts 35°
2026-05-07 18:47 41.91869 8.79508 9 ft 1 kts 76°
2026-05-07 18:47 41.91870 8.79509 9 ft 0 kts 76°
2026-05-07 18:50 41.91871 8.79513 9 ft 0 kts 77°
2026-05-07 18:51 41.91869 8.79528 9 ft 2 kts 98°
2026-05-07 18:51 41.91866 8.79562 9 ft 3 kts 88°
2026-05-07 18:51 41.91881 8.79599 10 ft 4 kts 56°
2026-05-07 18:51 41.91915 8.79624 10 ft 6 kts 18°
2026-05-07 18:52 41.91964 8.79651 9 ft 8 kts 26°
2026-05-07 18:52 41.92027 8.79691 9 ft 10 kts 26°
2026-05-07 18:52 41.92100 8.79737 9 ft 11 kts 24°
2026-05-07 18:52 41.92181 8.79786 9 ft 13 kts 24°
2026-05-07 18:53 41.92268 8.79840 9 ft 14 kts 25°
2026-05-07 18:53 41.92361 8.79896 9 ft 14 kts 24°
2026-05-07 18:53 41.92460 8.79958 9 ft 15 kts 27°
2026-05-07 18:53 41.92561 8.80027 10 ft 15 kts 27°
2026-05-07 18:54 41.92634 8.80071 11 ft 6 kts 26°
2026-05-07 18:54 41.92679 8.80100 12 ft 6 kts 26°
2026-05-07 18:54 41.92727 8.80131 12 ft 8 kts 26°
2026-05-07 18:54 41.92780 8.80175 12 ft 9 kts 38°
2026-05-07 18:55 41.92833 8.80241 12 ft 10 kts 45°
2026-05-07 18:55 41.92884 8.80313 12 ft 6 kts 47°
2026-05-07 18:55 41.92892 8.80325 13 ft 0 kts 47°
2026-05-07 18:59 41.92904 8.80340 13 ft 3 kts 43°
2026-05-07 18:59 41.92927 8.80368 14 ft 4 kts 43°
2026-05-07 19:00 41.92952 8.80403 14 ft 5 kts 56°
2026-05-07 19:00 41.92973 8.80467 13 ft 7 kts 109°
2026-05-07 19:00 41.92950 8.80549 12 ft 8 kts 112°
2026-05-07 19:00 41.92904 8.80569 12 ft 0 kts 205°
2026-05-07 19:01 41.92903 8.80569 12 ft 0 kts 205°
2026-05-07 19:06 41.92899 8.80566 12 ft 3 kts 205°
2026-05-07 19:07 41.92579 8.80354 11 ft 89 kts 207°
2026-05-07 19:07 41.91710 8.79786 10 ft 158 kts 207°
2026-05-07 19:07 41.90533 8.78894 574 ft 172 kts 226°
2026-05-07 19:07 41.90182 8.77211 1447 ft 172 kts 271°
2026-05-07 19:08 41.89931 8.75486 2181 ft 182 kts 230°
2026-05-07 19:08 41.88729 8.74485 3090 ft 177 kts 216°
2026-05-07 19:08 41.87838 8.73199 3857 ft 180 kts 238°
2026-05-07 19:08 41.87132 8.71437 4453 ft 197 kts 244°
2026-05-07 19:09 41.86416 8.69474 5043 ft 214 kts 244°
2026-05-07 19:09 41.85838 8.67275 5669 ft 233 kts 266°
2026-05-07 19:09 41.86254 8.64937 6814 ft 233 kts 298°
2026-05-07 19:09 41.87537 8.63175 7860 ft 238 kts 317°
2026-05-07 19:10 41.89050 8.61637 8732 ft 245 kts 317°
2026-05-07 19:10 41.90713 8.60273 9623 ft 258 kts 338°
2026-05-07 19:10 41.92754 8.60230 10540 ft 274 kts 13°
2026-05-07 19:10 41.94788 8.61500 11194 ft 292 kts 25°
2026-05-07 19:11 41.96851 8.63022 11703 ft 311 kts 25°
2026-05-07 19:11 41.98882 8.64505 12139 ft 328 kts 25°
2026-05-07 19:11 42.01297 8.66228 12599 ft 348 kts 24°
2026-05-07 19:11 42.03817 8.67995 13052 ft 366 kts 24°
2026-05-07 19:12 42.06477 8.69851 13478 ft 384 kts 24°
2026-05-07 19:12 42.09232 8.71766 13832 ft 402 kts 24°
2026-05-07 19:12 42.11908 8.73622 14385 ft 410 kts 24°
2026-05-07 19:12 42.14780 8.75613 15130 ft 415 kts 24°
2026-05-07 19:13 42.17662 8.77618 15856 ft 419 kts 25°
2026-05-07 19:13 42.20576 8.79650 16523 ft 424 kts 25°
2026-05-07 19:13 42.23556 8.81608 17158 ft 426 kts 19°
2026-05-07 19:13 42.26671 8.82915 17739 ft 427 kts
2026-05-07 19:14 42.29890 8.83527 18327 ft 426 kts
2026-05-07 19:14 42.33241 8.83896 18903 ft 430 kts 359°
2026-05-07 19:14 42.36665 8.84230 19470 ft 435 kts 360°
2026-05-07 19:14 42.40162 8.84584 19965 ft 440 kts 360°
2026-05-07 19:15 42.43688 8.84961 20538 ft 444 kts
2026-05-07 19:15 42.47282 8.85354 21086 ft 448 kts
2026-05-07 19:15 42.50927 8.85760 21632 ft 452 kts
2026-05-07 19:15 42.54508 8.86163 22148 ft 456 kts
2026-05-07 19:16 42.57937 8.86552 22648 ft 460 kts
2026-05-07 19:16 42.61570 8.86965 23140 ft 463 kts
2026-05-07 19:16 42.65266 8.87385 23627 ft 467 kts
2026-05-07 19:16 42.68842 8.87791 24063 ft 470 kts
2026-05-07 19:17 42.72462 8.88206 24510 ft 474 kts
2026-05-07 19:17 42.76142 8.88625 24940 ft 477 kts
2026-05-07 19:17 42.79870 8.89048 25342 ft 481 kts
2026-05-07 19:17 42.83584 8.89472 25775 ft 483 kts
2026-05-07 19:18 42.87387 8.89909 26339 ft 483 kts
2026-05-07 19:18 42.91216 8.90351 26773 ft 486 kts
2026-05-07 19:18 42.94997 8.90784 27120 ft 490 kts
2026-05-07 19:18 42.98875 8.91226 27513 ft 493 kts
2026-05-07 19:19 43.02761 8.91673 27857 ft 497 kts
2026-05-07 19:19 43.06620 8.92115 28216 ft 499 kts
2026-05-07 19:19 43.10451 8.92556 28646 ft 500 kts
2026-05-07 19:19 43.14274 8.92999 29116 ft 499 kts
2026-05-07 19:20 43.18125 8.93442 29549 ft 499 kts
2026-05-07 19:20 43.21852 8.93870 29932 ft 500 kts 360°
2026-05-07 19:20 43.25718 8.94315 30353 ft 500 kts
2026-05-07 19:20 43.29508 8.94754 30808 ft 499 kts
2026-05-07 19:21 43.33322 8.95360 31220 ft 502 kts
2026-05-07 19:21 43.37060 8.96297 31680 ft 503 kts
2026-05-07 19:21 43.40727 8.97578 32129 ft 504 kts 13°
2026-05-07 19:21 43.44300 8.99194 32503 ft 506 kts 17°
2026-05-07 19:22 43.47848 9.01175 32879 ft 507 kts 21°
2026-05-07 19:22 43.51398 9.03343 33340 ft 505 kts 22°
2026-05-07 19:22 43.54897 9.05522 33763 ft 504 kts 22°
2026-05-07 19:22 43.58291 9.07630 34099 ft 504 kts 21°
2026-05-07 19:23 43.61812 9.09802 34410 ft 504 kts 21°
2026-05-07 19:23 43.65346 9.11973 34674 ft 505 kts 21°
2026-05-07 19:23 43.68858 9.14127 34875 ft 507 kts 21°
2026-05-07 19:23 43.72438 9.16322 35116 ft 507 kts 21°
2026-05-07 19:24 43.76085 9.18560 35346 ft 508 kts 21°
2026-05-07 19:24 43.79744 9.20810 35584 ft 507 kts 21°
2026-05-07 19:24 43.83383 9.23048 35770 ft 508 kts 21°
2026-05-07 19:24 43.87038 9.25302 35852 ft 510 kts 21°
2026-05-07 19:25 43.94467 9.29890 35867 ft 510 kts 21°
2026-05-07 19:25 44.01953 9.34526 35862 ft 510 kts 21°
2026-05-07 19:26 44.09329 9.39105 35870 ft 510 kts 21°
2026-05-07 19:26 44.16358 9.43465 35876 ft 510 kts 21°
2026-05-07 19:27 44.23714 9.48048 35887 ft 511 kts 20°
2026-05-07 19:27 44.30975 9.52590 35894 ft 511 kts 21°
2026-05-07 19:28 44.38350 9.57220 35901 ft 512 kts 20°
2026-05-07 19:28 44.45633 9.61806 35895 ft 513 kts 20°
2026-05-07 19:29 44.52916 9.66126 35903 ft 511 kts 20°
2026-05-07 19:29 44.60199 9.70393 35905 ft 512 kts 20°
2026-05-07 19:30 44.67330 9.74594 35890 ft 513 kts 20°
2026-05-07 19:30 44.74314 9.78718 35881 ft 513 kts 20°
2026-05-07 19:31 44.81118 9.82749 35875 ft 513 kts 20°
2026-05-07 19:31 44.87920 9.86786 35871 ft 513 kts 20°
2026-05-07 19:32 44.94783 9.90873 35869 ft 513 kts 20°
2026-05-07 19:32 45.01694 9.94995 35874 ft 513 kts 20°
2026-05-07 19:33 45.08701 9.99183 35880 ft 514 kts 20°
2026-05-07 19:33 45.15663 10.03349 35871 ft 513 kts 20°
2026-05-07 19:34 45.22787 10.07617 35868 ft 513 kts 20°
2026-05-07 19:34 45.29884 10.11892 35874 ft 514 kts 20°
2026-05-07 19:35 45.37062 10.16234 35899 ft 514 kts 20°
2026-05-07 19:35 45.44324 10.20634 35897 ft 514 kts 20°
2026-05-07 19:36 45.51543 10.25024 35905 ft 515 kts 19°
2026-05-07 19:36 45.58908 10.29518 35883 ft 515 kts 19°
2026-05-07 19:37 45.66433 10.34117 35894 ft 515 kts 19°
2026-05-07 19:37 45.73896 10.38689 35927 ft 516 kts 19°
2026-05-07 19:38 45.81424 10.43334 35933 ft 516 kts 20°
2026-05-07 19:38 45.88716 10.48214 35955 ft 518 kts 22°
2026-05-07 19:39 45.95867 10.53098 35919 ft 517 kts 22°
2026-05-07 19:39 46.02992 10.57937 35946 ft 518 kts 21°
2026-05-07 19:40 46.10125 10.62782 35916 ft 517 kts 21°
2026-05-07 19:40 46.17221 10.67607 35914 ft 516 kts 22°
2026-05-07 19:41 46.24603 10.72664 35899 ft 515 kts 22°
2026-05-07 19:41 46.31792 10.77593 35926 ft 514 kts 22°
2026-05-07 19:42 46.38867 10.82449 35914 ft 513 kts 22°
2026-05-07 19:42 46.46047 10.87397 35894 ft 512 kts 22°
2026-05-07 19:43 46.53330 10.92426 35902 ft 513 kts 22°
2026-05-07 19:43 46.60398 10.97322 35937 ft 511 kts 22°
2026-05-07 19:44 46.67261 11.02084 35913 ft 511 kts 22°
2026-05-07 19:44 46.74227 11.06933 35902 ft 509 kts 23°
2026-05-07 19:45 46.81077 11.11721 35924 ft 508 kts 22°
2026-05-07 19:45 46.87801 11.16328 35917 ft 507 kts 19°
2026-05-07 19:46 46.94805 11.19787 35905 ft 498 kts 10°
2026-05-07 19:46 47.02052 11.21637 35887 ft 494 kts
2026-05-07 19:47 47.09487 11.22193 35871 ft 491 kts 356°
2026-05-07 19:47 47.16857 11.22598 35835 ft 492 kts 357°
2026-05-07 19:48 47.24308 11.23071 35826 ft 492 kts 357°
2026-05-07 19:48 47.31630 11.23555 35816 ft 491 kts 357°
2026-05-07 19:49 47.39344 11.24083 35818 ft 491 kts 357°
2026-05-07 19:49 47.47072 11.24612 35828 ft 491 kts 358°
2026-05-07 19:50 47.54581 11.25110 35852 ft 491 kts 356°
2026-05-07 19:50 47.61873 11.25143 35847 ft 490 kts 354°
2026-05-07 19:51 47.69383 11.25513 35856 ft 493 kts
2026-05-07 19:51 47.76804 11.27368 35855 ft 498 kts
2026-05-07 19:52 47.83859 11.30468 35840 ft 500 kts 13°
2026-05-07 19:52 47.90840 11.33070 35835 ft 497 kts
2026-05-07 19:53 47.97788 11.34329 35568 ft 493 kts 359°
2026-05-07 19:53 48.01300 11.34614 35343 ft 492 kts 357°
2026-05-07 19:53 48.04765 11.34741 35141 ft 490 kts 354°
2026-05-07 19:54 48.08258 11.34585 34919 ft 488 kts 351°
2026-05-07 19:54 48.11602 11.34143 34690 ft 486 kts 347°
2026-05-07 19:54 48.15073 11.33481 34461 ft 487 kts 346°
2026-05-07 19:54 48.18579 11.32831 34203 ft 489 kts 349°
2026-05-07 19:55 48.22018 11.32599 33943 ft 494 kts 355°
2026-05-07 19:55 48.25462 11.32834 33857 ft 498 kts
2026-05-07 19:55 48.32470 11.34750 33800 ft 504 kts 12°
2026-05-07 19:56 48.35926 11.36434 33527 ft 499 kts 16°
2026-05-07 19:56 48.39268 11.38336 33285 ft 497 kts 18°
2026-05-07 19:56 48.42682 11.40332 33037 ft 496 kts 18°
2026-05-07 19:56 48.46060 11.42304 32770 ft 496 kts 18°
2026-05-07 19:57 48.49482 11.44280 32529 ft 497 kts 18°
2026-05-07 19:57 48.52866 11.46222 32268 ft 496 kts 18°
2026-05-07 19:57 48.56384 11.48232 32006 ft 496 kts 18°
2026-05-07 19:57 48.59849 11.50206 31721 ft 496 kts 18°
2026-05-07 19:58 48.63391 11.51949 31438 ft 494 kts
2026-05-07 19:58 48.66979 11.52544 31166 ft 486 kts 354°
2026-05-07 19:58 48.70585 11.51926 30886 ft 477 kts 341°
2026-05-07 19:58 48.73956 11.50266 30689 ft 472 kts 333°
2026-05-07 19:59 48.77291 11.48270 30354 ft 471 kts 332°
2026-05-07 19:59 48.80595 11.46252 30046 ft 471 kts 332°
2026-05-07 19:59 48.83951 11.44224 29786 ft 472 kts 333°
2026-05-07 19:59 48.87292 11.42231 29494 ft 473 kts 333°
2026-05-07 20:00 48.90599 11.40279 29213 ft 473 kts 334°
2026-05-07 20:00 48.93876 11.38363 28908 ft 474 kts 333°
2026-05-07 20:00 48.97096 11.36478 28635 ft 474 kts 334°
2026-05-07 20:00 49.00313 11.34590 28384 ft 474 kts 334°
2026-05-07 20:01 49.03564 11.32683 28089 ft 474 kts 334°
2026-05-07 20:01 49.06825 11.30767 27795 ft 475 kts 334°
2026-05-07 20:01 49.10215 11.28771 27507 ft 473 kts 334°
2026-05-07 20:01 49.13509 11.26833 27262 ft 470 kts 334°
2026-05-07 20:02 49.16775 11.24912 26976 ft 466 kts 335°
2026-05-07 20:02 49.20234 11.23209 26678 ft 468 kts 342°
2026-05-07 20:02 49.23877 11.22263 26347 ft 470 kts 352°
2026-05-07 20:02 49.27512 11.22065 26075 ft 470 kts 356°
2026-05-07 20:03 49.31154 11.22117 25767 ft 469 kts 358°
2026-05-07 20:03 49.34749 11.22202 25487 ft 466 kts 358°
2026-05-07 20:03 49.38356 11.22268 25198 ft 462 kts 358°
2026-05-07 20:03 49.41992 11.22315 24899 ft 457 kts 358°
2026-05-07 20:04 49.45543 11.22345 24613 ft 455 kts 358°
2026-05-07 20:04 49.48926 11.22371 24306 ft 451 kts 358°
2026-05-07 20:04 49.52368 11.22399 24004 ft 449 kts 358°
2026-05-07 20:04 49.55727 11.22427 23725 ft 446 kts 358°
2026-05-07 20:05 49.59102 11.22438 23428 ft 443 kts 358°
2026-05-07 20:05 49.62417 11.22437 23125 ft 442 kts 358°
2026-05-07 20:05 49.65813 11.22434 22825 ft 440 kts 358°
2026-05-07 20:05 49.69153 11.22439 22528 ft 438 kts 358°
2026-05-07 20:06 49.72413 11.22450 22256 ft 436 kts 358°
2026-05-07 20:06 49.75586 11.22848 21977 ft 435 kts
2026-05-07 20:06 49.78678 11.24355 21877 ft 437 kts 23°
2026-05-07 20:06 49.81501 11.26789 21829 ft 437 kts 31°
2026-05-07 20:07 49.84233 11.29503 21800 ft 438 kts 32°
2026-05-07 20:07 49.86991 11.32293 21795 ft 438 kts 32°
2026-05-07 20:07 49.89815 11.35137 21785 ft 438 kts 32°
2026-05-07 20:07 49.92655 11.37977 21779 ft 437 kts 32°
2026-05-07 20:08 49.95439 11.40752 21780 ft 438 kts 32°
2026-05-07 20:08 49.98195 11.43489 21792 ft 437 kts 32°
2026-05-07 20:08 50.00968 11.46241 21791 ft 436 kts 32°
2026-05-07 20:08 50.03674 11.48931 21789 ft 436 kts 32°
2026-05-07 20:09 50.06457 11.51700 21787 ft 436 kts 32°
2026-05-07 20:09 50.09212 11.54446 21785 ft 437 kts 32°
2026-05-07 20:09 50.11925 11.57146 21782 ft 438 kts 32°
2026-05-07 20:10 50.17429 11.62616 21812 ft 437 kts 32°
2026-05-07 20:10 50.20171 11.65350 21815 ft 437 kts 33°
2026-05-07 20:10 50.22897 11.68089 21814 ft 438 kts 33°
2026-05-07 20:10 50.25572 11.70788 21811 ft 438 kts 33°
2026-05-07 20:11 50.28286 11.73528 21806 ft 439 kts 33°
2026-05-07 20:11 50.30942 11.76211 21808 ft 439 kts 32°
2026-05-07 20:11 50.33620 11.78914 21818 ft 439 kts 32°
2026-05-07 20:11 50.36283 11.81602 21818 ft 439 kts 32°
2026-05-07 20:12 50.38936 11.84284 21814 ft 439 kts 32°
2026-05-07 20:12 50.41666 11.87050 21805 ft 438 kts 32°
2026-05-07 20:12 50.44409 11.89831 21813 ft 439 kts 32°
2026-05-07 20:12 50.47115 11.92576 21554 ft 437 kts 32°
2026-05-07 20:13 50.49879 11.95385 21268 ft 435 kts 32°
2026-05-07 20:13 50.52594 11.98147 20990 ft 434 kts 32°
2026-05-07 20:13 50.55328 12.00933 20707 ft 432 kts 32°
2026-05-07 20:13 50.57988 12.03647 20422 ft 430 kts 32°
2026-05-07 20:14 50.60701 12.06420 20138 ft 428 kts 32°
2026-05-07 20:14 50.63428 12.09212 19847 ft 426 kts 32°
2026-05-07 20:14 50.66096 12.11947 19562 ft 425 kts 32°
2026-05-07 20:14 50.68650 12.14566 19290 ft 423 kts 33°
2026-05-07 20:15 50.71237 12.17223 19013 ft 421 kts 33°
2026-05-07 20:15 50.73758 12.19820 18749 ft 420 kts 32°
2026-05-07 20:15 50.76293 12.22433 18467 ft 418 kts 33°
2026-05-07 20:15 50.78803 12.25021 18204 ft 416 kts 32°
2026-05-07 20:16 50.81314 12.27618 17939 ft 415 kts 32°
2026-05-07 20:16 50.83810 12.30199 17676 ft 414 kts 32°
2026-05-07 20:16 50.86315 12.32798 17410 ft 413 kts 32°
2026-05-07 20:16 50.88768 12.35338 17149 ft 411 kts 32°
2026-05-07 20:17 50.91231 12.37895 16889 ft 410 kts 32°
2026-05-07 20:17 50.93787 12.40551 16616 ft 409 kts 32°
2026-05-07 20:17 50.96353 12.43223 16345 ft 407 kts 32°
2026-05-07 20:17 50.98811 12.45788 16082 ft 405 kts 32°
2026-05-07 20:18 51.01382 12.48473 15805 ft 404 kts 32°
2026-05-07 20:18 51.03867 12.51068 15540 ft 403 kts 32°
2026-05-07 20:18 51.06346 12.53662 15274 ft 401 kts 32°
2026-05-07 20:18 51.08810 12.56244 15011 ft 400 kts 32°
2026-05-07 20:19 51.11285 12.58837 14745 ft 398 kts 31°
2026-05-07 20:19 51.13743 12.61406 14481 ft 397 kts 31°
2026-05-07 20:19 51.16199 12.63973 14223 ft 396 kts 32°
2026-05-07 20:19 51.18648 12.66547 13951 ft 395 kts 32°
2026-05-07 20:20 51.21086 12.69130 13684 ft 394 kts 32°
2026-05-07 20:20 51.23540 12.71730 13462 ft 393 kts 32°
2026-05-07 20:20 51.25925 12.74262 13167 ft 392 kts 32°
2026-05-07 20:20 51.28276 12.76755 12942 ft 390 kts 32°
2026-05-07 20:21 51.30648 12.79275 12696 ft 389 kts 32°
2026-05-07 20:21 51.33057 12.81833 12428 ft 388 kts 32°
2026-05-07 20:21 51.35537 12.84470 12173 ft 386 kts 32°
2026-05-07 20:21 51.38039 12.87132 11890 ft 385 kts 32°
2026-05-07 20:22 51.40566 12.89824 11772 ft 383 kts 32°
2026-05-07 20:22 51.43019 12.92440 11751 ft 384 kts 32°
2026-05-07 20:22 51.45459 12.95045 11750 ft 384 kts 32°
2026-05-07 20:22 51.47894 12.97650 11767 ft 384 kts 32°
2026-05-07 20:23 51.50322 13.00251 11768 ft 383 kts 32°
2026-05-07 20:23 51.52831 13.02942 11774 ft 383 kts 32°
2026-05-07 20:23 51.55383 13.05683 11780 ft 384 kts 32°
2026-05-07 20:23 51.57893 13.08384 11775 ft 384 kts 32°
2026-05-07 20:24 51.60403 13.11086 11779 ft 384 kts 32°
2026-05-07 20:24 51.62873 13.13750 11781 ft 384 kts 32°
2026-05-07 20:24 51.65345 13.16421 11782 ft 384 kts 32°
2026-05-07 20:24 51.67818 13.19095 11782 ft 384 kts 32°
2026-05-07 20:25 51.70301 13.21784 11782 ft 384 kts 32°
2026-05-07 20:25 51.72789 13.24481 11782 ft 384 kts 32°
2026-05-07 20:25 51.75264 13.27168 11782 ft 385 kts 32°
2026-05-07 20:25 51.77675 13.29788 11783 ft 385 kts 32°
2026-05-07 20:26 51.80107 13.32435 11783 ft 385 kts 32°
2026-05-07 20:26 51.82577 13.35127 11782 ft 386 kts 32°
2026-05-07 20:26 51.85042 13.37816 11791 ft 386 kts 32°
2026-05-07 20:26 51.87589 13.40600 11773 ft 386 kts 32°
2026-05-07 20:27 51.90155 13.43406 11795 ft 386 kts 32°
2026-05-07 20:27 51.92699 13.46194 11771 ft 370 kts 32°
2026-05-07 20:27 51.95104 13.48839 11555 ft 357 kts 32°
2026-05-07 20:27 51.97470 13.51438 11194 ft 350 kts 31°
2026-05-07 20:28 51.99782 13.53800 10783 ft 341 kts 20°
2026-05-07 20:28 52.02152 13.54489 10464 ft 321 kts 348°
2026-05-07 20:28 52.04285 13.53134 10126 ft 297 kts 315°
2026-05-07 20:28 52.05623 13.50276 9843 ft 280 kts 293°
2026-05-07 20:29 52.06669 13.47073 9476 ft 276 kts 296°
2026-05-07 20:29 52.07809 13.44064 9108 ft 273 kts 299°
2026-05-07 20:29 52.08982 13.41327 8748 ft 269 kts 301°
2026-05-07 20:29 52.10215 13.38585 8475 ft 264 kts 302°
2026-05-07 20:30 52.11459 13.35893 8176 ft 258 kts 303°
2026-05-07 20:30 52.12699 13.33236 7861 ft 254 kts 303°
2026-05-07 20:30 52.13913 13.30629 7534 ft 249 kts 303°
2026-05-07 20:30 52.15074 13.28125 7230 ft 245 kts 303°
2026-05-07 20:31 52.16192 13.25708 6935 ft 241 kts 302°
2026-05-07 20:31 52.17289 13.23327 6654 ft 237 kts 303°
2026-05-07 20:31 52.18372 13.20911 6380 ft 231 kts 296°
2026-05-07 20:31 52.18741 13.18175 6128 ft 222 kts 261°
2026-05-07 20:32 52.18180 13.15489 5924 ft 216 kts 249°
2026-05-07 20:32 52.17546 13.12960 5800 ft 205 kts 249°
2026-05-07 20:32 52.16944 13.10529 5777 ft 202 kts 250°
2026-05-07 20:32 52.16344 13.08092 5774 ft 205 kts 250°
2026-05-07 20:33 52.15754 13.05668 5779 ft 205 kts 250°
2026-05-07 20:33 52.15175 13.03296 5769 ft 206 kts 250°
2026-05-07 20:33 52.14595 13.00903 5772 ft 205 kts 250°
2026-05-07 20:33 52.14008 12.98492 5793 ft 206 kts 250°
2026-05-07 20:34 52.13422 12.96091 5785 ft 205 kts 250°
2026-05-07 20:34 52.12832 12.93667 5779 ft 204 kts 250°
2026-05-07 20:34 52.12237 12.91232 5779 ft 204 kts 249°
2026-05-07 20:34 52.11647 12.88827 5781 ft 205 kts 250°
2026-05-07 20:35 52.11066 12.86463 5776 ft 205 kts 249°
2026-05-07 20:35 52.10480 12.84068 5770 ft 204 kts 249°
2026-05-07 20:35 52.09895 12.81687 5764 ft 204 kts 249°
2026-05-07 20:35 52.09310 12.79306 5765 ft 203 kts 250°
2026-05-07 20:36 52.08714 12.76883 5767 ft 213 kts 250°
2026-05-07 20:36 52.08098 12.74375 5758 ft 215 kts 250°
2026-05-07 20:36 52.07602 12.71708 5748 ft 214 kts 270°
2026-05-07 20:36 52.08038 12.69168 5755 ft 215 kts 304°
2026-05-07 20:37 52.09245 12.67486 5753 ft 218 kts 334°
2026-05-07 20:37 52.10834 12.66466 5777 ft 223 kts 337°
2026-05-07 20:37 52.12444 12.65460 5816 ft 223 kts 336°
2026-05-07 20:37 52.14139 12.64707 5765 ft 228 kts 359°
2026-05-07 20:38 52.15801 12.65647 5771 ft 233 kts 35°
2026-05-07 20:38 52.17175 12.67759 5771 ft 237 kts 52°
2026-05-07 20:38 52.18033 12.70403 5778 ft 239 kts 67°
2026-05-07 20:38 52.18735 12.73284 5646 ft 240 kts 68°
2026-05-07 20:39 52.19418 12.76123 5506 ft 239 kts 67°
2026-05-07 20:39 52.20085 12.78893 5364 ft 239 kts 68°
2026-05-07 20:39 52.20729 12.81562 5234 ft 239 kts 67°
2026-05-07 20:39 52.21393 12.84224 5103 ft 235 kts 64°
2026-05-07 20:40 52.22104 12.86755 4991 ft 233 kts 63°
2026-05-07 20:40 52.22817 12.89355 4905 ft 232 kts 64°
2026-05-07 20:40 52.23504 12.91980 4811 ft 231 kts 65°
2026-05-07 20:40 52.24191 12.94732 4666 ft 231 kts 66°
2026-05-07 20:41 52.24868 12.97539 4531 ft 231 kts 67°
2026-05-07 20:41 52.25532 13.00367 4397 ft 228 kts 68°
2026-05-07 20:41 52.26165 13.03111 4293 ft 213 kts 67°
2026-05-07 20:41 52.26741 13.05626 4161 ft 199 kts 67°
2026-05-07 20:42 52.27272 13.07938 4030 ft 186 kts 66°
2026-05-07 20:42 52.27776 13.10131 3858 ft 174 kts 66°
2026-05-07 20:42 52.28245 13.12175 3670 ft 164 kts 65°
2026-05-07 20:42 52.28681 13.14052 3594 ft 157 kts 66°
2026-05-07 20:43 52.29119 13.15941 3622 ft 160 kts 65°
2026-05-07 20:43 52.29548 13.17778 3652 ft 159 kts 66°
2026-05-07 20:43 52.29960 13.19553 3672 ft 159 kts 65°
2026-05-07 20:43 52.30363 13.21281 3597 ft 158 kts 65°
2026-05-07 20:44 52.30758 13.22974 3387 ft 153 kts 65°
2026-05-07 20:44 52.31141 13.24616 3184 ft 148 kts 65°
2026-05-07 20:44 52.31523 13.26244 2998 ft 145 kts 65°
2026-05-07 20:44 52.31931 13.27983 2790 ft 145 kts 65°
2026-05-07 20:45 52.32338 13.29716 2564 ft 145 kts 64°
2026-05-07 20:45 52.32727 13.31375 2344 ft 145 kts 64°
2026-05-07 20:45 52.33107 13.32989 2138 ft 145 kts 65°
2026-05-07 20:45 52.33481 13.34577 1933 ft 145 kts 65°
2026-05-07 20:46 52.33851 13.36151 1732 ft 143 kts 65°
2026-05-07 20:46 52.34207 13.37663 1540 ft 142 kts 65°
2026-05-07 20:46 52.34564 13.39179 1352 ft 141 kts 64°
2026-05-07 20:46 52.34915 13.40667 1168 ft 142 kts 65°
2026-05-07 20:47 52.35273 13.42186 978 ft 142 kts 64°
2026-05-07 20:47 52.35629 13.43692 789 ft 143 kts 65°
2026-05-07 20:47 52.35990 13.45232 592 ft 143 kts 65°
2026-05-07 20:47 52.36343 13.46747 401 ft 144 kts 65°
2026-05-07 20:48 52.36708 13.48271 184 ft 143 kts 64°
2026-05-07 20:48 52.37046 13.49594 147 ft 97 kts 69°
2026-05-07 20:48 52.37227 13.50432 144 ft 52 kts 76°
2026-05-07 20:48 52.37303 13.50904 147 ft 31 kts 82°
2026-05-07 20:49 52.37297 13.51070 148 ft 10 kts 95°
2026-05-07 20:49 52.37290 13.51188 150 ft 9 kts 94°
2026-05-07 20:49 52.37287 13.51233 151 ft 1 kts 98°
2026-05-07 20:49 52.37285 13.51256 151 ft 2 kts 98°
2026-05-07 20:50 52.37281 13.51298 151 ft 4 kts 98°
2026-05-07 20:50 52.37268 13.51344 151 ft 4 kts 151°
2026-05-07 20:50 52.37236 13.51337 152 ft 4 kts 193°
2026-05-07 20:50 52.37207 13.51306 152 ft 5 kts 217°
2026-05-07 20:51 52.37183 13.51245 151 ft 8 kts 244°
2026-05-07 20:51 52.37158 13.51138 150 ft 11 kts 249°
2026-05-07 20:51 52.37130 13.51011 150 ft 12 kts 250°
2026-05-07 20:51 52.37095 13.50867 147 ft 15 kts 249°
2026-05-07 20:52 52.37051 13.50678 143 ft 18 kts 249°
2026-05-07 20:52 52.37004 13.50476 143 ft 17 kts 249°
2026-05-07 20:52 52.36959 13.50289 143 ft 15 kts 249°
2026-05-07 20:52 52.36899 13.50139 141 ft 16 kts 194°
2026-05-07 20:53 52.36864 13.50142 140 ft 2 kts 162°
2026-05-07 20:53 52.36836 13.50155 140 ft 5 kts 162°
2026-05-07 20:53 52.36807 13.50170 140 ft 0 kts 162°
2026-05-07 20:53 52.36796 13.50176 140 ft 2 kts 162°
2026-05-07 20:54 52.36771 13.50177 140 ft 5 kts 183°
2026-05-07 20:54 52.36719 13.50166 140 ft 9 kts 189°
2026-05-07 20:54 52.36643 13.50192 140 ft 12 kts 153°
2026-05-07 20:54 52.36546 13.50257 140 ft 15 kts 158°
2026-05-07 20:55 52.36489 13.50294 140 ft 7 kts 159°
2026-05-07 20:55 52.36430 13.50330 140 ft 9 kts 159°
2026-05-07 20:55 52.36358 13.50373 140 ft 11 kts 158°
2026-05-07 20:55 52.36277 13.50425 140 ft 12 kts 158°
2026-05-07 20:56 52.36204 13.50471 140 ft 10 kts 159°
2026-05-07 20:56 52.36123 13.50520 140 ft 12 kts 158°
2026-05-07 20:56 52.36091 13.50542 140 ft 1 kts 156°
2026-05-07 20:56 52.36084 13.50547 140 ft 0 kts 156°
2026-05-07 20:57 52.36078 13.50559 140 ft 2 kts 85°
2026-05-07 20:57 52.36117 13.50667 140 ft 16 kts 65°
2026-05-07 20:57 52.36143 13.50773 140 ft 0 kts 68°